Weather in Kitsa

Russia / Murmansk Oblast     68°30′47″N   33°11′19″E
temp.,
°C
wind,
m/s
gust,
m/s
humid.,
%
clouds,
%
prec.,
mm/h
press.,
hPa
HPBL,
m
1 march, mon
mon100:00+2sw41596100 0.3 996709
03:00+2w61692100 0.9 995779
06:00+1w5148976 0.0 994681
09:000w6148582 0.2 994851
12:000w7148685 0.0 992952
15:000w7148392 0.0 9911098
18:00−2w5148131 0.0 989822
21:00−3w5139156 0.0 988615
2 march, tue
tue200:00−2nnw6149693 0.6 9901022
03:00−6wnw6148797 0.9 994872
06:00−5nw71483100 1.8 9961057
09:00−6nw71489100 1.9 9991034
12:00−4nw81583100 0.3 10011476
15:00−5nw71486100 0.6 10031424
18:00−6nw61387100 0.3 1004971
21:00−7wnw51387100 0.4 1005676
3 march, wed
wed300:00−7wnw4129596 0.6 1004629
03:00−8wnw399698 1.1 1005331
06:00−10w249698 0.3 1004134
09:00−11w229691 0.4 100323
12:00−8wsw1294100 0.0 1002150
15:00−7w139499 0.1 1001183
18:00−10nw1193100 0.0 100021
21:00−12w1191100 0.0 99921
4 march, thu
thu400:00−13wnw118957 0.0 99921
03:00−12wnw129378 0.0 99922
06:00−11wnw229679 0.2 99923
09:00−12wnw129784 0.4 100032
12:00−8nne239389 0.3 1001256
15:00−9nne369194 0.4 1002657
18:00−14nne229691 0.1 100321
21:00−14n229790 0.1 100523
5 march, fri
fri500:00−14nnw229899 0.1 100745
03:00−15wnw119799 0.1 100820
06:00−15wsw2297100 0.0 100840
09:00−13w129798 0.3 100753
12:00−9wnw389297 0.3 1008411
15:00−6nw598698 0.8 10091047
18:00−8nw3893100 0.3 1010419
21:00−11w1296100 0.4 101029